ONEWEB-0694, 56722

Orbit data source: Space-Track

ONEWEB-0694, 56722 is a payload satellite owned by One Web (NAA) (UK) in LEO that was launched on Sat, 20 May 2023 UTC via an FALCON 9 launch vehicle from the Air Force Western Test Range (AFWTR). Payloads include a variety of satellites, spacecraft, and rockets equipped with specific instruments for various scientific and technological missions. These include communications satellites like Starlink; space stations such as the ISS; scientific satellites like the Hubble; Earth observation satellites from companies like Planet Labs, Umbra, and HawkEye 360; GPS; miniature CubeSats for education and research; and military/defense satellites.

Loading next visibility...
ONEWEB-0694 details
Identifier
56722, 2023-068N
Orbit
LEO
Last TLE update18 hours ago
Origin
Flag of UKOne Web (NAA) (UK)
ManufacturerOne Web
MissionOperational Commercial Communications
Bus & MotorARROW, Unknown motor
Mass148 kg wet, ~140 kg dry
Launch date (UTC)
2023-05-20 (2 years ago)
Launch vehicle
FALCON 9
Launch site
Air Force Western Test Range (AFWTR)
Object type
Payload
Rocket body
Debris
Shape & HBRTrap Box + 2 Pan, 5 m
Radar Cross Section2.032 m², Large (>1 m²)

Expand to show TLE details & history

TLE from 18 hours ago
0 ONEWEB-0694
1 56722U 23068N   25014.91117198  .00000019  00000-0  16643-4 0  9994
2 56722  87.9104 332.0028 0002207  77.8368 282.3010 13.16594288 84275
Epoch: 2025-01-14T21:52Z
Definitive object data (Epoch: 2025-01-14T21:52:05.259Z)
Latitude-0.00001°
Longitude-110.63019°
Altitude1,200.298 km
Speed7.254 km/s
True Right ascension22h 08m 00s
True Declination0° 00' 00"
Sunlit
Object was in daylight at TLE epoch
Visualization TLE readout
Latitude-84.53154°
Longitude-133.06199°
Altitude1,227.996 km
Speed7.239 km/s
Apparent Right ascension03h 48m 58s
Apparent Declination-68° 16' 54"
Sunlit
Object is in daylight
Visualization observer readout
Local Sidereal Time16:21:29
Azimuth173.747° S
Elevation-61.292°
Doppler factor1
Orbital elements
Apogee altitude1,196.538 km
Perigee altitude1,193.196 km
Semi-major axis7,573.004 km
Eccentricity0.0002207
Inclination87.9104°
RAAN332.0028°
Arg. of periapsis77.8368°
True anomaly282.27629°
Mean anomaly282.301°
Eccentric anomaly282.28864°
Mean motion3.29337 °/min
BSTAR0.000016643
Orbital period109.31 mins
Loading maneuver chart data...
Loading historical data...
Loading historical data...
Loading historical data...
Loading historical data...
Loading historical data...
Loading historical data...
Loading historical data...

ONEWEB-0694 Visibility forecast

Observer location: undefined°, undefined

Span
Click to sort rows by Start time (UTC) header in descending order
Start Az.
Max El. time (UTC)
Max El. Az.
Max El.
End time (UTC)
End Az.
9 mins2025-01-15 19:53:35.733Z114.868° SE2025-01-15 19:58:35.733Z69.887° E18.321°2025-01-15 20:02:35.733Z34.508° NE
12 mins2025-01-15 21:41:35.733Z189.852° SSW2025-01-15 21:46:35.733Z254.048° W43.554°2025-01-15 21:53:35.733Z356.111° N
5 mins2025-01-16 07:21:35.733Z55.285° ENE2025-01-16 07:23:35.733Z73.157° E13.721°2025-01-16 07:26:35.733Z98.711° ESE
12 mins2025-01-16 09:08:35.733Z0.662° NNE2025-01-16 09:13:35.733Z23.651° NE44.806°2025-01-16 09:20:35.733Z180.152° SSW
6 mins2025-01-16 10:59:35.733Z312.56° NW2025-01-16 11:02:35.733Z285.56° WNW14.926°2025-01-16 11:05:35.733Z259.567° W
|